Time,TemperatureF,DewpointF,PressureIn,WindDirection,WindDirectionDegrees,WindSpeedMPH,WindSpeedGustMPH,Humidity,HourlyPrecipIn,Conditions,Clouds,dailyrainin,SoftwareType,DateUTC
2013-02-15 00:00:00,29.5,37.6,29.99,NW,311,0.0,1.0,80,0.00,,,0.00,meteohub,2013-02-15 05:00:00,
2013-02-15 00:05:00,29.5,37.4,29.99,NW,311,0.0,1.0,80,0.00,,,0.00,meteohub,2013-02-15 05:05:00,
2013-02-15 00:10:00,29.1,37.4,29.99,NW,311,0.0,0.0,79,0.00,,,0.00,meteohub,2013-02-15 05:10:00,
2013-02-15 00:15:00,28.9,37.2,29.99,NW,311,0.0,0.0,80,0.00,,,0.00,meteohub,2013-02-15 05:15:00,
2013-02-15 00:20:00,28.8,36.3,29.99,NW,311,0.0,0.0,80,0.00,,,0.00,meteohub,2013-02-15 05:20:00,
2013-02-15 00:25:00,28.4,36.1,29.99,NW,311,0.0,1.0,81,0.00,,,0.00,meteohub,2013-02-15 05:25:00,
2013-02-15 00:30:00,28.0,37.0,29.99,NW,311,0.0,1.0,81,0.00,,,0.00,meteohub,2013-02-15 05:30:00,
2013-02-15 00:35:00,27.9,37.0,29.98,NW,311,0.0,1.0,81,0.00,,,0.00,meteohub,2013-02-15 05:35:00,
2013-02-15 00:41:00,27.7,37.0,29.98,NW,311,0.0,1.0,82,0.00,,,0.00,meteohub,2013-02-15 05:41:00,
2013-02-15 00:46:00,27.3,37.0,29.98,NW,311,0.0,0.0,82,0.00,,,0.00,meteohub,2013-02-15 05:46:00,
2013-02-15 00:51:00,27.0,37.0,29.98,NW,311,0.0,0.0,82,0.00,,,0.00,meteohub,2013-02-15 05:51:00,
2013-02-15 00:56:00,26.8,37.0,29.98,NW,311,0.0,1.0,83,0.00,,,0.00,meteohub,2013-02-15 05:56:00,
2013-02-15 01:01:00,26.6,35.8,29.98,NW,311,0.0,1.0,83,0.00,,,0.00,meteohub,2013-02-15 06:01:00,
2013-02-15 01:06:00,26.2,35.8,29.98,NW,311,0.0,1.0,83,0.00,,,0.00,meteohub,2013-02-15 06:06:00,
2013-02-15 01:11:00,26.1,35.8,29.98,NW,311,0.0,0.0,83,0.00,,,0.00,meteohub,2013-02-15 06:11:00,
2013-02-15 01:16:00,25.9,36.7,29.99,NW,311,0.0,0.0,84,0.00,,,0.00,meteohub,2013-02-15 06:16:00,
2013-02-15 01:21:00,25.9,36.9,29.99,NW,311,0.0,2.0,85,0.00,,,0.00,meteohub,2013-02-15 06:21:00,
2013-02-15 01:26:00,25.9,36.7,29.99,NW,311,0.0,2.0,85,0.00,,,0.00,meteohub,2013-02-15 06:26:00,
2013-02-15 01:31:00,25.9,36.9,29.99,NW,311,0.0,2.0,85,0.00,,,0.00,meteohub,2013-02-15 06:31:00,
2013-02-15 01:36:00,26.1,36.7,29.99,NW,311,1.0,1.0,85,0.00,,,0.00,meteohub,2013-02-15 06:36:00,
2013-02-15 01:41:00,26.1,36.7,29.99,NW,311,0.0,1.0,86,0.00,,,0.00,meteohub,2013-02-15 06:41:00,
2013-02-15 01:46:00,26.2,36.5,29.99,NW,311,0.0,2.0,85,0.00,,,0.00,meteohub,2013-02-15 06:46:00,
2013-02-15 01:51:00,26.2,36.5,29.99,NW,311,0.0,2.0,85,0.00,,,0.00,meteohub,2013-02-15 06:51:00,
2013-02-15 01:56:00,26.2,36.5,29.99,NW,311,0.0,2.0,85,0.00,,,0.00,meteohub,2013-02-15 06:56:00,
2013-02-15 02:01:00,26.4,36.5,29.99,NW,311,0.0,2.0,86,0.00,,,0.00,meteohub,2013-02-15 07:01:00,
2013-02-15 02:06:00,26.8,36.5,29.99,NW,311,0.0,1.0,85,0.00,,,0.00,meteohub,2013-02-15 07:06:00,
2013-02-15 02:11:00,26.8,36.3,29.98,NW,311,0.0,1.0,85,0.00,,,0.00,meteohub,2013-02-15 07:11:00,
2013-02-15 02:16:00,26.8,36.3,29.98,NW,311,0.0,1.0,85,0.00,,,0.00,meteohub,2013-02-15 07:16:00,
2013-02-15 02:21:00,27.0,36.3,29.98,NW,311,0.0,2.0,86,0.00,,,0.00,meteohub,2013-02-15 07:21:00,
2013-02-15 02:26:00,27.1,36.1,29.98,South,177,0.0,2.0,87,0.00,,,0.00,meteohub,2013-02-15 07:26:00,
2013-02-15 02:31:00,27.3,36.1,29.98,South,177,0.0,5.0,87,0.00,,,0.00,meteohub,2013-02-15 07:31:00,
2013-02-15 02:36:00,27.7,36.3,29.98,South,176,1.0,5.0,87,0.00,,,0.00,meteohub,2013-02-15 07:36:00,
2013-02-15 02:41:00,27.9,36.1,29.98,South,177,1.0,4.0,87,0.00,,,0.00,meteohub,2013-02-15 07:41:00,
2013-02-15 02:46:00,28.0,36.1,29.98,South,176,0.0,2.0,87,0.00,,,0.00,meteohub,2013-02-15 07:46:00,
2013-02-15 02:51:00,28.2,36.1,29.98,South,177,0.0,3.0,87,0.00,,,0.00,meteohub,2013-02-15 07:51:00,
2013-02-15 02:56:00,28.6,36.0,29.98,South,175,0.0,3.0,87,0.00,,,0.00,meteohub,2013-02-15 07:56:00,
2013-02-15 03:01:00,28.8,36.0,29.98,South,183,0.0,3.0,87,0.00,,,0.00,meteohub,2013-02-15 08:01:00,
2013-02-15 03:06:00,28.9,36.0,29.98,SSW,201,1.0,4.0,87,0.00,,,0.00,meteohub,2013-02-15 08:06:00,
2013-02-15 03:11:00,28.9,36.0,29.98,SSW,201,1.0,4.0,87,0.00,,,0.00,meteohub,2013-02-15 08:11:00,
2013-02-15 03:16:00,29.1,36.0,29.98,SSW,200,0.0,4.0,87,0.00,,,0.00,meteohub,2013-02-15 08:16:00,
2013-02-15 03:21:00,29.1,36.0,29.98,SSW,201,0.0,2.0,87,0.00,,,0.00,meteohub,2013-02-15 08:21:00,
2013-02-15 03:26:00,28.9,36.0,29.98,SSW,201,0.0,2.0,87,0.00,,,0.00,meteohub,2013-02-15 08:26:00,
2013-02-15 03:31:00,28.9,36.0,29.98,SSW,201,0.0,2.0,87,0.00,,,0.00,meteohub,2013-02-15 08:31:00,
2013-02-15 03:36:00,28.9,36.0,29.98,SSW,200,0.0,2.0,88,0.00,,,0.00,meteohub,2013-02-15 08:36:00,
2013-02-15 03:41:00,28.8,36.0,29.98,SSW,202,0.0,2.0,88,0.00,,,0.00,meteohub,2013-02-15 08:41:00,
2013-02-15 03:46:00,28.8,36.0,29.98,SSW,202,0.0,2.0,88,0.00,,,0.00,meteohub,2013-02-15 08:46:00,
2013-02-15 03:51:00,28.8,36.0,29.98,SSW,202,0.0,2.0,89,0.00,,,0.00,meteohub,2013-02-15 08:51:00,
2013-02-15 03:56:00,28.6,36.0,29.98,SSW,202,0.0,2.0,89,0.00,,,0.00,meteohub,2013-02-15 08:56:00,
2013-02-15 04:01:00,28.4,35.8,29.98,SSW,202,0.0,2.0,89,0.00,,,0.00,meteohub,2013-02-15 09:01:00,
2013-02-15 04:06:00,28.0,35.8,29.98,SSW,202,0.0,2.0,89,0.00,,,0.00,meteohub,2013-02-15 09:06:00,
2013-02-15 04:11:00,27.9,35.8,29.98,SSW,202,0.0,2.0,89,0.00,,,0.00,meteohub,2013-02-15 09:11:00,
2013-02-15 04:16:00,27.7,35.8,29.98,SSW,202,0.0,0.0,89,0.00,,,0.00,meteohub,2013-02-15 09:16:00,
2013-02-15 04:21:00,27.5,35.8,29.98,SSW,202,0.0,0.0,90,0.00,,,0.00,meteohub,2013-02-15 09:21:00,
2013-02-15 04:26:00,27.3,36.0,29.98,SSW,202,0.0,0.0,90,0.00,,,0.00,meteohub,2013-02-15 09:26:00,
2013-02-15 04:31:00,27.3,36.0,29.98,SSW,202,0.0,0.0,91,0.00,,,0.00,meteohub,2013-02-15 09:31:00,
2013-02-15 04:36:00,27.3,36.0,29.98,SSW,202,0.0,1.0,91,0.00,,,0.00,meteohub,2013-02-15 09:36:00,
2013-02-15 04:41:00,27.3,35.8,29.98,SSW,202,0.0,1.0,91,0.00,,,0.00,meteohub,2013-02-15 09:41:00,
2013-02-15 04:46:00,27.3,35.8,29.98,SSW,202,0.0,0.0,92,0.00,,,0.00,meteohub,2013-02-15 09:46:00,
2013-02-15 04:51:00,27.1,36.0,29.98,SSW,202,0.0,0.0,92,0.00,,,0.00,meteohub,2013-02-15 09:51:00,
2013-02-15 04:56:00,27.1,36.0,29.98,SSW,202,0.0,0.0,92,0.00,,,0.00,meteohub,2013-02-15 09:56:00,
2013-02-15 05:02:00,27.1,35.8,29.98,SSW,202,0.0,0.0,92,0.00,,,0.00,meteohub,2013-02-15 10:02:00,
2013-02-15 05:07:00,27.1,35.8,29.98,SSW,202,0.0,2.0,92,0.00,,,0.00,meteohub,2013-02-15 10:07:00,
2013-02-15 05:12:00,27.3,35.8,29.98,SSW,193,2.0,2.0,93,0.00,,,0.00,meteohub,2013-02-15 10:12:00,
2013-02-15 05:17:00,27.9,35.6,29.98,SSW,194,0.0,4.0,94,0.00,,,0.00,meteohub,2013-02-15 10:17:00,
2013-02-15 05:22:00,28.0,35.6,29.98,SSW,199,0.0,4.0,94,0.00,,,0.00,meteohub,2013-02-15 10:22:00,
2013-02-15 05:27:00,28.2,35.8,29.98,SSW,202,0.0,4.0,93,0.00,,,0.00,meteohub,2013-02-15 10:27:00,
2013-02-15 05:32:00,28.4,35.8,29.98,SSW,202,0.0,4.0,93,0.00,,,0.00,meteohub,2013-02-15 10:32:00,
2013-02-15 05:37:00,28.4,35.6,29.98,SSW,202,0.0,4.0,93,0.00,,,0.00,meteohub,2013-02-15 10:37:00,
2013-02-15 05:42:00,28.4,35.6,29.98,SSW,202,0.0,1.0,93,0.00,,,0.00,meteohub,2013-02-15 10:42:00,
2013-02-15 05:47:00,28.2,35.6,29.98,SSW,202,0.0,1.0,92,0.00,,,0.00,meteohub,2013-02-15 10:47:00,
2013-02-15 05:52:00,28.0,35.6,29.98,SSW,202,0.0,0.0,92,0.00,,,0.00,meteohub,2013-02-15 10:52:00,
2013-02-15 05:57:00,27.9,35.6,29.98,SSW,202,0.0,0.0,92,0.00,,,0.00,meteohub,2013-02-15 10:57:00,
2013-02-15 06:02:00,27.7,35.6,29.98,SSW,202,0.0,0.0,92,0.00,,,0.00,meteohub,2013-02-15 11:02:00,
2013-02-15 06:07:00,27.5,35.8,29.98,SSW,202,0.0,2.0,92,0.00,,,0.00,meteohub,2013-02-15 11:07:00,
2013-02-15 06:12:00,27.3,35.8,29.98,SSW,202,0.0,2.0,92,0.00,,,0.00,meteohub,2013-02-15 11:12:00,
2013-02-15 06:17:00,27.1,35.6,29.98,SSW,202,0.0,2.0,93,0.00,,,0.00,meteohub,2013-02-15 11:17:00,
2013-02-15 06:22:00,27.3,35.6,29.99,SSW,202,0.0,2.0,93,0.00,,,0.00,meteohub,2013-02-15 11:22:00,
2013-02-15 06:27:00,27.7,35.6,29.99,SSE,148,0.0,2.0,94,0.00,,,0.00,meteohub,2013-02-15 11:27:00,
2013-02-15 06:32:00,28.0,35.8,29.99,SSW,203,0.0,2.0,95,0.00,,,0.00,meteohub,2013-02-15 11:32:00,
2013-02-15 06:37:00,28.2,35.8,29.99,SW,215,0.0,2.0,95,0.00,,,0.00,meteohub,2013-02-15 11:37:00,
2013-02-15 06:42:00,28.6,35.6,29.99,WSW,237,0.0,4.0,95,0.00,,,0.00,meteohub,2013-02-15 11:42:00,
2013-02-15 06:47:00,28.9,35.6,29.99,SSW,213,0.0,4.0,95,0.00,,,0.00,meteohub,2013-02-15 11:47:00,
2013-02-15 06:52:00,28.9,35.6,29.99,SSW,212,1.0,4.0,95,0.00,,,0.00,meteohub,2013-02-15 11:52:00,
2013-02-15 06:57:00,29.1,35.6,29.99,SSW,211,1.0,4.0,95,0.00,,,0.00,meteohub,2013-02-15 11:57:00,
2013-02-15 07:02:00,29.3,35.6,29.99,SSW,210,0.0,4.0,95,0.00,,,0.00,meteohub,2013-02-15 12:02:00,
2013-02-15 07:07:00,29.5,35.6,29.99,SSW,211,0.0,4.0,95,0.00,,,0.00,meteohub,2013-02-15 12:07:00,
2013-02-15 07:12:00,29.7,35.6,29.99,WSW,237,1.0,2.0,95,0.00,,,0.00,meteohub,2013-02-15 12:12:00,
2013-02-15 07:17:00,29.7,35.6,29.98,SW,227,0.0,4.0,95,0.00,,,0.00,meteohub,2013-02-15 12:17:00,
2013-02-15 07:22:00,29.8,35.6,29.98,South,186,2.0,4.0,95,0.00,,,0.00,meteohub,2013-02-15 12:22:00,
2013-02-15 07:27:00,30.0,35.6,29.98,SSE,163,0.0,5.0,95,0.00,,,0.00,meteohub,2013-02-15 12:27:00,
2013-02-15 07:32:00,30.0,35.6,29.98,South,173,0.0,5.0,95,0.00,,,0.00,meteohub,2013-02-15 12:32:00,
2013-02-15 07:37:00,30.2,36.5,29.98,South,172,0.0,4.0,95,0.00,,,0.00,meteohub,2013-02-15 12:37:00,
2013-02-15 07:42:00,30.4,36.5,29.98,South,173,0.0,4.0,95,0.00,,,0.00,meteohub,2013-02-15 12:42:00,
2013-02-15 07:47:00,30.4,36.5,29.98,SSW,202,2.0,4.0,95,0.00,,,0.00,meteohub,2013-02-15 12:47:00,
2013-02-15 07:52:00,30.6,35.8,29.98,SSE,163,2.0,6.0,95,0.00,,,0.00,meteohub,2013-02-15 12:52:00,
2013-02-15 07:57:00,30.9,35.8,29.98,SSE,163,0.0,6.0,95,0.00,,,0.00,meteohub,2013-02-15 12:57:00,
2013-02-15 08:02:00,31.3,35.8,29.98,WSW,238,0.0,6.0,94,0.00,,,0.00,meteohub,2013-02-15 13:02:00,
2013-02-15 08:07:00,31.6,35.6,29.98,South,186,0.0,5.0,94,0.00,,,0.00,meteohub,2013-02-15 13:07:00,
2013-02-15 08:12:00,32.2,35.6,29.98,SW,221,1.0,6.0,94,0.00,,,0.00,meteohub,2013-02-15 13:12:00,
2013-02-15 08:17:00,33.1,36.5,29.98,South,180,2.0,6.0,93,0.00,,,0.00,meteohub,2013-02-15 13:17:00,
2013-02-15 08:22:00,33.6,36.7,29.98,South,183,0.0,7.0,91,0.00,,,0.00,meteohub,2013-02-15 13:22:00,
2013-02-15 08:27:00,34.3,36.7,29.98,West,267,1.0,7.0,89,0.00,,,0.00,meteohub,2013-02-15 13:27:00,
2013-02-15 08:32:00,35.2,36.7,29.98,South,176,1.0,7.0,88,0.00,,,0.00,meteohub,2013-02-15 13:32:00,
2013-02-15 08:37:00,36.0,36.7,29.99,NW,311,1.0,7.0,85,0.00,,,0.00,meteohub,2013-02-15 13:37:00,
2013-02-15 08:42:00,36.7,36.7,29.98,NNW,328,3.0,5.0,83,0.00,,,0.00,meteohub,2013-02-15 13:42:00,
2013-02-15 08:47:00,36.9,36.7,29.98,ESE,118,0.0,8.0,81,0.00,,,0.00,meteohub,2013-02-15 13:47:00,
2013-02-15 08:52:00,37.2,35.8,29.98,NW,314,5.0,8.0,80,0.00,,,0.00,meteohub,2013-02-15 13:52:00,
2013-02-15 08:57:00,37.6,36.7,29.98,NW,319,2.0,8.0,79,0.00,,,0.00,meteohub,2013-02-15 13:57:00,
2013-02-15 09:02:00,37.8,36.7,29.99,NW,304,0.0,9.0,78,0.00,,,0.00,meteohub,2013-02-15 14:02:00,
2013-02-15 09:07:00,37.9,36.7,29.98,NW,305,6.0,9.0,78,0.00,,,0.00,meteohub,2013-02-15 14:07:00,
2013-02-15 09:12:00,38.1,36.9,29.98,NW,318,0.0,9.0,78,0.00,,,0.00,meteohub,2013-02-15 14:12:00,
2013-02-15 09:17:00,38.5,36.9,29.99,NNW,340,13.0,13.0,77,0.00,,,0.00,meteohub,2013-02-15 14:17:00,
2013-02-15 09:22:00,38.7,36.9,29.98,NNW,336,6.0,13.0,76,0.00,,,0.00,meteohub,2013-02-15 14:22:00,
2013-02-15 09:27:00,38.8,36.9,29.98,NNW,334,5.0,13.0,76,0.00,,,0.00,meteohub,2013-02-15 14:27:00,
2013-02-15 09:32:00,39.2,36.9,29.98,NW,319,5.0,13.0,75,0.00,,,0.00,meteohub,2013-02-15 14:32:00,
2013-02-15 09:37:00,39.7,36.9,29.98,NW,321,7.0,12.0,74,0.00,,,0.00,meteohub,2013-02-15 14:37:00,
2013-02-15 09:42:00,40.3,36.9,29.98,WNW,298,8.0,10.0,73,0.00,,,0.00,meteohub,2013-02-15 14:42:00,
2013-02-15 09:47:00,40.6,36.9,29.98,NW,307,2.0,13.0,72,0.00,,,0.00,meteohub,2013-02-15 14:47:00,
2013-02-15 09:52:00,41.0,37.0,29.98,WNW,300,0.0,13.0,72,0.00,,,0.00,meteohub,2013-02-15 14:52:00,
2013-02-15 09:57:00,41.4,37.0,29.98,NW,314,1.0,13.0,71,0.00,,,0.00,meteohub,2013-02-15 14:57:00,
2013-02-15 10:02:00,41.5,37.0,29.98,SW,217,2.0,9.0,71,0.00,,,0.00,meteohub,2013-02-15 15:02:00,
2013-02-15 10:07:00,42.1,37.0,29.98,NW,315,4.0,9.0,70,0.00,,,0.00,meteohub,2013-02-15 15:07:00,
2013-02-15 10:12:00,42.4,37.0,29.98,NW,309,0.0,8.0,70,0.00,,,0.00,meteohub,2013-02-15 15:12:00,
2013-02-15 10:17:00,43.2,37.0,29.98,NW,304,5.0,8.0,68,0.00,,,0.00,meteohub,2013-02-15 15:17:00,
2013-02-15 10:22:00,43.5,37.0,29.98,NW,313,1.0,8.0,67,0.00,,,0.00,meteohub,2013-02-15 15:22:00,
2013-02-15 10:27:00,43.9,37.0,29.98,ESE,123,1.0,9.0,66,0.00,,,0.00,meteohub,2013-02-15 15:27:00,
2013-02-15 10:32:00,44.2,37.0,29.98,NW,313,1.0,9.0,66,0.00,,,0.00,meteohub,2013-02-15 15:32:00,
2013-02-15 10:37:00,44.6,37.0,29.97,NW,317,8.0,9.0,65,0.00,,,0.00,meteohub,2013-02-15 15:37:00,
2013-02-15 10:42:00,45.0,37.0,29.98,NNW,342,1.0,8.0,65,0.00,,,0.00,meteohub,2013-02-15 15:42:00,
2013-02-15 10:47:00,45.1,37.0,29.98,WNW,290,0.0,8.0,64,0.00,,,0.00,meteohub,2013-02-15 15:47:00,
2013-02-15 10:52:00,45.3,37.2,29.97,NW,314,8.0,8.0,64,0.00,,,0.00,meteohub,2013-02-15 15:52:00,
2013-02-15 10:57:00,45.3,37.2,29.97,South,173,1.0,8.0,64,0.00,,,0.00,meteohub,2013-02-15 15:57:00,
2013-02-15 11:02:00,45.5,37.2,29.97,NW,311,1.0,8.0,63,0.00,,,0.00,meteohub,2013-02-15 16:02:00,
2013-02-15 11:07:00,45.9,37.2,29.97,SSE,157,1.0,9.0,64,0.00,,,0.00,meteohub,2013-02-15 16:07:00,
2013-02-15 11:12:00,46.0,37.2,29.97,NW,317,6.0,11.0,63,0.00,,,0.00,meteohub,2013-02-15 16:12:00,
2013-02-15 11:17:00,46.2,36.1,29.97,NW,326,3.0,11.0,63,0.00,,,0.00,meteohub,2013-02-15 16:17:00,
2013-02-15 11:22:00,46.6,36.1,29.97,SSE,161,3.0,10.0,63,0.00,,,0.00,meteohub,2013-02-15 16:22:00,
2013-02-15 11:27:00,46.9,36.1,29.97,NNW,329,6.0,10.0,62,0.00,,,0.00,meteohub,2013-02-15 16:27:00,
2013-02-15 11:32:00,46.9,36.3,29.96,SSE,168,0.0,9.0,62,0.00,,,0.00,meteohub,2013-02-15 16:32:00,
2013-02-15 11:37:00,47.1,36.3,29.96,SSW,206,5.0,9.0,62,0.00,,,0.00,meteohub,2013-02-15 16:37:00,
2013-02-15 11:42:00,47.5,36.3,29.96,SE,138,3.0,8.0,61,0.00,,,0.00,meteohub,2013-02-15 16:42:00,
2013-02-15 11:47:00,47.7,36.3,29.96,West,277,0.0,8.0,61,0.00,,,0.00,meteohub,2013-02-15 16:47:00,
2013-02-15 11:52:00,47.8,36.5,29.96,WSW,248,2.0,8.0,60,0.00,,,0.00,meteohub,2013-02-15 16:52:00,
2013-02-15 11:57:00,48.4,36.5,29.96,South,178,7.0,8.0,60,0.00,,,0.00,meteohub,2013-02-15 16:57:00,
2013-02-15 12:02:00,48.4,36.5,29.95,NW,321,2.0,8.0,60,0.00,,,0.00,meteohub,2013-02-15 17:02:00,
2013-02-15 12:07:00,48.0,36.5,29.94,SSW,198,4.0,7.0,60,0.00,,,0.00,meteohub,2013-02-15 17:07:00,
2013-02-15 12:12:00,48.0,36.7,29.94,South,176,5.0,10.0,60,0.00,,,0.00,meteohub,2013-02-15 17:12:00,
2013-02-15 12:17:00,48.0,36.7,29.94,SSW,196,2.0,10.0,60,0.00,,,0.00,meteohub,2013-02-15 17:17:00,
2013-02-15 12:22:00,48.2,36.7,29.94,WNW,286,0.0,9.0,60,0.00,,,0.00,meteohub,2013-02-15 17:22:00,
2013-02-15 12:27:00,48.4,36.7,29.94,SW,222,8.0,9.0,60,0.00,,,0.00,meteohub,2013-02-15 17:27:00,
2013-02-15 12:32:00,48.4,36.7,29.94,SSE,156,5.0,8.0,60,0.00,,,0.00,meteohub,2013-02-15 17:32:00,
2013-02-15 12:37:00,48.2,36.7,29.94,WSW,238,0.0,10.0,60,0.00,,,0.00,meteohub,2013-02-15 17:37:00,
2013-02-15 12:42:00,48.6,36.7,29.93,SW,229,4.0,13.0,60,0.00,,,0.00,meteohub,2013-02-15 17:42:00,
2013-02-15 12:47:00,48.7,36.7,29.93,SSW,210,5.0,13.0,60,0.00,,,0.00,meteohub,2013-02-15 17:47:00,
2013-02-15 12:52:00,48.9,36.9,29.93,SSW,199,5.0,10.0,60,0.00,,,0.00,meteohub,2013-02-15 17:52:00,
2013-02-15 12:57:00,48.7,36.9,29.92,WNW,298,4.0,11.0,59,0.00,,,0.00,meteohub,2013-02-15 17:57:00,
2013-02-15 13:02:00,48.7,36.9,29.92,SSW,210,1.0,13.0,60,0.00,,,0.00,meteohub,2013-02-15 18:02:00,
2013-02-15 13:07:00,48.9,36.9,29.92,WNW,300,0.0,13.0,60,0.00,,,0.00,meteohub,2013-02-15 18:07:00,
2013-02-15 13:12:00,49.3,36.9,29.92,NW,313,0.0,13.0,59,0.00,,,0.00,meteohub,2013-02-15 18:12:00,
2013-02-15 13:17:00,49.5,36.9,29.92,South,178,1.0,8.0,59,0.00,,,0.00,meteohub,2013-02-15 18:17:00,
2013-02-15 13:22:00,49.6,37.0,29.92,South,175,2.0,8.0,59,0.00,,,0.00,meteohub,2013-02-15 18:22:00,
2013-02-15 13:27:00,49.6,37.0,29.92,South,174,6.0,9.0,58,0.00,,,0.00,meteohub,2013-02-15 18:27:00,
2013-02-15 13:32:00,49.6,37.0,29.92,ESE,110,1.0,10.0,58,0.00,,,0.00,meteohub,2013-02-15 18:32:00,
2013-02-15 13:37:00,49.8,37.0,29.91,South,172,2.0,10.0,58,0.00,,,0.00,meteohub,2013-02-15 18:37:00,
2013-02-15 13:42:00,49.8,37.0,29.91,NW,315,5.0,10.0,58,0.00,,,0.00,meteohub,2013-02-15 18:42:00,
2013-02-15 13:47:00,50.2,37.0,29.91,WNW,292,0.0,10.0,58,0.00,,,0.00,meteohub,2013-02-15 18:47:00,
2013-02-15 13:52:00,50.2,37.0,29.91,NW,319,5.0,9.0,57,0.00,,,0.00,meteohub,2013-02-15 18:52:00,
2013-02-15 13:57:00,50.4,37.0,29.91,West,277,4.0,12.0,57,0.00,,,0.00,meteohub,2013-02-15 18:57:00,
2013-02-15 14:02:00,50.4,37.0,29.91,SSW,194,4.0,12.0,57,0.00,,,0.00,meteohub,2013-02-15 19:02:00,
2013-02-15 14:07:00,49.8,37.0,29.91,SW,225,0.0,12.0,57,0.00,,,0.00,meteohub,2013-02-15 19:07:00,
2013-02-15 14:12:00,49.8,37.0,29.91,SSW,210,2.0,12.0,58,0.00,,,0.00,meteohub,2013-02-15 19:12:00,
2013-02-15 14:17:00,49.6,37.2,29.91,East,90,1.0,12.0,58,0.00,,,0.00,meteohub,2013-02-15 19:17:00,
2013-02-15 14:22:00,49.8,37.2,29.91,SSE,150,4.0,9.0,58,0.00,,,0.00,meteohub,2013-02-15 19:22:00,
2013-02-15 14:27:00,49.8,37.2,29.91,SW,221,7.0,9.0,57,0.00,,,0.00,meteohub,2013-02-15 19:27:00,
2013-02-15 14:32:00,50.0,37.2,29.91,NW,314,2.0,10.0,57,0.00,,,0.00,meteohub,2013-02-15 19:32:00,
2013-02-15 14:37:00,50.4,37.2,29.90,NW,312,7.0,10.0,56,0.00,,,0.00,meteohub,2013-02-15 19:37:00,
2013-02-15 14:42:00,50.5,37.2,29.90,NW,313,4.0,9.0,56,0.00,,,0.00,meteohub,2013-02-15 19:42:00,
2013-02-15 14:47:00,50.5,37.2,29.90,NNW,329,5.0,9.0,56,0.00,,,0.00,meteohub,2013-02-15 19:47:00,
2013-02-15 14:52:00,50.7,37.2,29.90,WNW,302,0.0,9.0,55,0.00,,,0.00,meteohub,2013-02-15 19:52:00,
2013-02-15 14:57:00,51.1,37.4,29.90,WNW,298,4.0,9.0,55,0.00,,,0.00,meteohub,2013-02-15 19:57:00,
2013-02-15 15:02:00,50.9,37.4,29.90,WNW,294,5.0,11.0,54,0.00,,,0.00,meteohub,2013-02-15 20:02:00,
2013-02-15 15:07:00,50.7,37.4,29.90,West,269,1.0,14.0,54,0.00,,,0.00,meteohub,2013-02-15 20:07:00,
2013-02-15 15:12:00,50.5,37.4,29.90,WNW,290,3.0,14.0,53,0.00,,,0.00,meteohub,2013-02-15 20:12:00,
2013-02-15 15:17:00,50.5,37.6,29.90,WNW,303,4.0,14.0,53,0.00,,,0.00,meteohub,2013-02-15 20:17:00,
2013-02-15 15:22:00,50.5,37.6,29.90,WNW,294,1.0,12.0,54,0.00,,,0.00,meteohub,2013-02-15 20:22:00,
2013-02-15 15:27:00,50.5,37.6,29.90,NW,311,1.0,9.0,54,0.00,,,0.00,meteohub,2013-02-15 20:27:00,
2013-02-15 15:32:00,50.4,37.8,29.90,NW,313,5.0,11.0,53,0.00,,,0.00,meteohub,2013-02-15 20:32:00,
2013-02-15 15:37:00,50.2,37.8,29.90,WNW,286,0.0,11.0,53,0.00,,,0.00,meteohub,2013-02-15 20:37:00,
2013-02-15 15:42:00,50.2,37.8,29.90,WSW,245,2.0,10.0,53,0.00,,,0.00,meteohub,2013-02-15 20:42:00,
2013-02-15 15:47:00,50.2,37.8,29.90,NW,321,3.0,10.0,53,0.00,,,0.00,meteohub,2013-02-15 20:47:00,
2013-02-15 15:52:00,49.8,37.8,29.90,NW,315,3.0,9.0,54,0.00,,,0.00,meteohub,2013-02-15 20:52:00,
2013-02-15 15:57:00,49.8,37.8,29.90,NW,313,1.0,9.0,55,0.00,,,0.00,meteohub,2013-02-15 20:57:00,
2013-02-15 16:02:00,50.0,37.9,29.90,NW,314,1.0,9.0,55,0.00,,,0.00,meteohub,2013-02-15 21:02:00,
2013-02-15 16:07:00,50.0,37.9,29.90,NNW,338,2.0,7.0,55,0.00,,,0.00,meteohub,2013-02-15 21:07:00,
2013-02-15 16:12:00,50.0,37.9,29.90,North,355,4.0,10.0,54,0.00,,,0.00,meteohub,2013-02-15 21:12:00,
2013-02-15 16:17:00,50.0,37.9,29.90,NW,307,0.0,10.0,55,0.00,,,0.00,meteohub,2013-02-15 21:17:00,
2013-02-15 16:22:00,49.8,37.9,29.90,WNW,292,0.0,10.0,55,0.00,,,0.00,meteohub,2013-02-15 21:22:00,
2013-02-15 16:27:00,49.8,37.9,29.90,South,186,0.0,10.0,56,0.00,,,0.00,meteohub,2013-02-15 21:27:00,
2013-02-15 16:32:00,49.6,37.9,29.90,WNW,288,0.0,8.0,56,0.00,,,0.00,meteohub,2013-02-15 21:32:00,
2013-02-15 16:37:00,49.5,37.9,29.90,SSW,203,0.0,5.0,56,0.00,,,0.00,meteohub,2013-02-15 21:37:00,
2013-02-15 16:42:00,49.3,37.9,29.90,SW,222,0.0,6.0,57,0.00,,,0.00,meteohub,2013-02-15 21:42:00,
2013-02-15 16:47:00,48.9,37.9,29.90,South,169,0.0,6.0,57,0.00,,,0.00,meteohub,2013-02-15 21:47:00,
2013-02-15 16:52:00,48.7,39.2,29.90,SW,227,4.0,7.0,57,0.00,,,0.00,meteohub,2013-02-15 21:52:00,
2013-02-15 16:57:00,48.6,39.6,29.90,SW,214,0.0,7.0,58,0.00,,,0.00,meteohub,2013-02-15 21:57:00,
2013-02-15 17:02:00,48.4,39.6,29.90,SW,214,0.0,6.0,58,0.00,,,0.00,meteohub,2013-02-15 22:02:00,
2013-02-15 17:07:00,48.0,39.7,29.90,SW,221,0.0,6.0,59,0.00,,,0.00,meteohub,2013-02-15 22:07:00,
2013-02-15 17:12:00,47.7,39.7,29.90,WNW,294,1.0,4.0,59,0.00,,,0.00,meteohub,2013-02-15 22:12:00,
2013-02-15 17:17:00,47.3,39.7,29.90,WSW,238,0.0,4.0,60,0.00,,,0.00,meteohub,2013-02-15 22:17:00,
2013-02-15 17:22:00,46.9,39.7,29.90,WSW,238,0.0,4.0,61,0.00,,,0.00,meteohub,2013-02-15 22:22:00,
2013-02-15 17:27:00,46.6,39.7,29.91,WSW,238,0.0,4.0,61,0.00,,,0.00,meteohub,2013-02-15 22:27:00,
2013-02-15 17:32:00,46.0,39.9,29.91,WSW,238,1.0,3.0,62,0.00,,,0.00,meteohub,2013-02-15 22:32:00,
2013-02-15 17:37:00,45.5,40.1,29.91,WSW,238,0.0,1.0,63,0.00,,,0.00,meteohub,2013-02-15 22:37:00,
2013-02-15 17:42:00,45.0,40.3,29.91,WSW,238,0.0,1.0,64,0.00,,,0.00,meteohub,2013-02-15 22:42:00,
2013-02-15 17:47:00,44.8,40.3,29.91,WSW,238,0.0,1.0,65,0.00,,,0.00,meteohub,2013-02-15 22:47:00,
2013-02-15 17:52:00,44.4,40.3,29.91,WSW,238,0.0,1.0,65,0.00,,,0.00,meteohub,2013-02-15 22:52:00,
2013-02-15 17:57:00,44.1,40.3,29.91,WSW,238,0.0,1.0,66,0.00,,,0.00,meteohub,2013-02-15 22:57:00,
2013-02-15 18:02:00,43.5,39.0,29.92,WSW,238,0.0,0.0,66,0.00,,,0.00,meteohub,2013-02-15 23:02:00,
2013-02-15 18:07:00,43.2,39.0,29.92,WSW,238,0.0,0.0,68,0.00,,,0.00,meteohub,2013-02-15 23:07:00,
2013-02-15 18:12:00,42.6,39.0,29.92,WSW,238,0.0,1.0,69,0.00,,,0.00,meteohub,2013-02-15 23:12:00,
2013-02-15 18:17:00,42.3,40.3,29.92,WSW,238,0.0,1.0,70,0.00,,,0.00,meteohub,2013-02-15 23:17:00,
2013-02-15 18:22:00,41.7,40.5,29.92,WSW,238,0.0,1.0,70,0.00,,,0.00,meteohub,2013-02-15 23:22:00,
2013-02-15 18:27:00,41.4,40.6,29.92,WSW,238,0.0,0.0,71,0.00,,,0.00,meteohub,2013-02-15 23:27:00,
2013-02-15 18:32:00,40.6,40.6,29.92,WSW,238,0.0,0.0,72,0.00,,,0.00,meteohub,2013-02-15 23:32:00,
2013-02-15 18:37:00,39.9,40.6,29.92,WSW,238,0.0,0.0,74,0.00,,,0.00,meteohub,2013-02-15 23:37:00,
2013-02-15 18:42:00,39.4,40.6,29.93,WSW,238,0.0,1.0,75,0.00,,,0.00,meteohub,2013-02-15 23:42:00,
2013-02-15 18:47:00,38.8,40.5,29.92,WSW,238,0.0,1.0,76,0.00,,,0.00,meteohub,2013-02-15 23:47:00,
2013-02-15 18:52:00,38.5,40.5,29.92,WSW,238,0.0,1.0,77,0.00,,,0.00,meteohub,2013-02-15 23:52:00,
2013-02-15 18:57:00,37.9,40.5,29.92,WSW,238,0.0,0.0,78,0.00,,,0.00,meteohub,2013-02-15 23:57:00,
2013-02-15 19:02:00,37.8,40.5,29.92,WSW,238,0.0,0.0,79,0.00,,,0.00,meteohub,2013-02-16 00:02:00,
2013-02-15 19:06:00,37.4,40.3,29.92,WSW,238,0.0,0.0,79,0.00,,,0.00,meteohub,2013-02-16 00:06:00,
2013-02-15 19:12:00,37.0,40.5,29.92,WSW,238,0.0,0.0,80,0.00,,,0.00,meteohub,2013-02-16 00:12:00,
2013-02-15 19:17:00,36.9,40.6,29.92,WSW,238,0.0,0.0,81,0.00,,,0.00,meteohub,2013-02-16 00:17:00,
2013-02-15 19:22:00,36.7,40.6,29.92,WSW,238,0.0,0.0,81,0.00,,,0.00,meteohub,2013-02-16 00:22:00,
2013-02-15 19:27:00,36.3,40.6,29.93,WSW,238,0.0,0.0,81,0.00,,,0.00,meteohub,2013-02-16 00:27:00,
2013-02-15 19:32:00,36.1,40.6,29.93,WSW,238,0.0,0.0,82,0.00,,,0.00,meteohub,2013-02-16 00:32:00,
2013-02-15 19:37:00,36.0,40.6,29.93,WSW,238,0.0,0.0,82,0.00,,,0.00,meteohub,2013-02-16 00:37:00,
2013-02-15 19:42:00,35.8,40.6,29.93,WSW,238,1.0,0.0,83,0.00,,,0.00,meteohub,2013-02-16 00:42:00,
2013-02-15 19:47:00,35.6,40.5,29.93,WSW,238,0.0,1.0,84,0.00,,,0.00,meteohub,2013-02-16 00:47:00,
2013-02-15 19:52:00,35.4,40.5,29.93,WSW,238,0.0,1.0,84,0.00,,,0.00,meteohub,2013-02-16 00:52:00,
2013-02-15 19:57:00,35.4,40.5,29.93,WSW,238,0.0,1.0,84,0.00,,,0.00,meteohub,2013-02-16 00:57:00,
2013-02-15 20:02:00,35.2,40.3,29.94,WSW,238,0.0,0.0,83,0.00,,,0.00,meteohub,2013-02-16 01:02:00,
2013-02-15 20:07:00,34.7,40.3,29.94,WSW,238,1.0,1.0,84,0.00,,,0.00,meteohub,2013-02-16 01:07:00,
2013-02-15 20:12:00,34.3,40.5,29.94,SSW,213,0.0,4.0,85,0.00,,,0.00,meteohub,2013-02-16 01:12:00,
2013-02-15 20:17:00,34.0,40.6,29.95,SSW,213,0.0,5.0,85,0.00,,,0.00,meteohub,2013-02-16 01:17:00,
2013-02-15 20:22:00,33.8,40.6,29.95,SSW,213,0.0,5.0,86,0.00,,,0.00,meteohub,2013-02-16 01:22:00,
2013-02-15 20:27:00,33.6,40.6,29.94,SSW,213,1.0,2.0,86,0.00,,,0.00,meteohub,2013-02-16 01:27:00,
2013-02-15 20:32:00,33.4,40.6,29.94,SSW,213,0.0,2.0,87,0.00,,,0.00,meteohub,2013-02-16 01:32:00,
2013-02-15 20:37:00,33.4,40.6,29.94,SSW,213,0.0,2.0,87,0.00,,,0.00,meteohub,2013-02-16 01:37:00,
2013-02-15 20:42:00,33.3,40.5,29.95,SSW,213,0.0,2.0,87,0.00,,,0.00,meteohub,2013-02-16 01:42:00,
2013-02-15 20:47:00,33.3,40.5,29.94,SSW,213,0.0,0.0,87,0.00,,,0.00,meteohub,2013-02-16 01:47:00,
2013-02-15 20:52:00,33.1,40.5,29.94,SSW,213,0.0,0.0,87,0.00,,,0.00,meteohub,2013-02-16 01:52:00,
2013-02-15 20:57:00,32.7,40.3,29.95,SSW,213,0.0,0.0,88,0.00,,,0.00,meteohub,2013-02-16 01:57:00,
2013-02-15 21:02:00,32.5,40.3,29.95,SSW,213,0.0,0.0,88,0.00,,,0.00,meteohub,2013-02-16 02:02:00,
2013-02-15 21:07:00,32.4,40.5,29.95,SSW,213,0.0,0.0,88,0.00,,,0.00,meteohub,2013-02-16 02:07:00,
2013-02-15 21:12:00,32.4,40.6,29.96,SSW,213,0.0,0.0,88,0.00,,,0.00,meteohub,2013-02-16 02:12:00,
2013-02-15 21:17:00,32.2,40.6,29.95,SSW,213,0.0,0.0,89,0.00,,,0.00,meteohub,2013-02-16 02:17:00,
2013-02-15 21:22:00,32.2,40.6,29.96,SSW,213,0.0,0.0,89,0.00,,,0.00,meteohub,2013-02-16 02:22:00,
2013-02-15 21:27:00,32.2,40.6,29.95,SSW,213,0.0,0.0,90,0.00,,,0.00,meteohub,2013-02-16 02:27:00,
2013-02-15 21:32:00,32.2,40.5,29.95,SSW,213,0.0,0.0,90,0.00,,,0.00,meteohub,2013-02-16 02:32:00,
2013-02-15 21:37:00,32.2,40.5,29.95,SSW,213,0.0,2.0,89,0.00,,,0.00,meteohub,2013-02-16 02:37:00,
2013-02-15 21:42:00,32.2,40.5,29.95,SSW,213,0.0,2.0,90,0.00,,,0.00,meteohub,2013-02-16 02:42:00,
2013-02-15 21:47:00,32.2,40.3,29.95,SSW,213,0.0,2.0,90,0.00,,,0.00,meteohub,2013-02-16 02:47:00,
2013-02-15 21:52:00,32.2,40.3,29.95,SSW,213,0.0,1.0,90,0.00,,,0.00,meteohub,2013-02-16 02:52:00,
2013-02-15 21:57:00,32.0,40.3,29.95,SSW,213,0.0,1.0,90,0.00,,,0.00,meteohub,2013-02-16 02:57:00,
2013-02-15 22:02:00,32.0,40.5,29.94,SSW,213,0.0,0.0,90,0.00,,,0.00,meteohub,2013-02-16 03:02:00,
2013-02-15 22:07:00,31.8,40.6,29.94,SSW,213,0.0,0.0,90,0.00,,,0.00,meteohub,2013-02-16 03:07:00,
2013-02-15 22:12:00,31.6,40.6,29.94,SSW,213,0.0,0.0,90,0.00,,,0.00,meteohub,2013-02-16 03:12:00,
2013-02-15 22:17:00,31.5,40.6,29.95,SSW,213,0.0,0.0,89,0.00,,,0.00,meteohub,2013-02-16 03:17:00,
2013-02-15 22:22:00,31.3,40.6,29.95,SSW,213,0.0,0.0,89,0.00,,,0.00,meteohub,2013-02-16 03:22:00,
2013-02-15 22:27:00,30.9,40.5,29.95,SSW,213,0.0,0.0,90,0.00,,,0.00,meteohub,2013-02-16 03:27:00,
2013-02-15 22:32:00,30.7,40.5,29.95,SSW,213,0.0,0.0,90,0.00,,,0.00,meteohub,2013-02-16 03:32:00,
2013-02-15 22:37:00,30.6,40.3,29.95,SSW,213,0.0,0.0,91,0.00,,,0.00,meteohub,2013-02-16 03:37:00,
2013-02-15 22:42:00,30.6,40.3,29.95,SSW,213,0.0,0.0,91,0.00,,,0.00,meteohub,2013-02-16 03:42:00,
2013-02-15 22:47:00,30.6,40.1,29.94,SSW,213,0.0,0.0,91,0.00,,,0.00,meteohub,2013-02-16 03:47:00,
2013-02-15 22:52:00,30.4,40.1,29.94,SSW,213,0.0,0.0,91,0.00,,,0.00,meteohub,2013-02-16 03:52:00,
2013-02-15 22:57:00,30.2,39.9,29.94,SSW,213,0.0,0.0,91,0.00,,,0.00,meteohub,2013-02-16 03:57:00,
2013-02-15 23:02:00,30.0,39.9,29.94,SSW,213,0.0,0.0,91,0.00,,,0.00,meteohub,2013-02-16 04:02:00,
2013-02-15 23:07:00,29.8,39.7,29.94,SSW,213,0.0,1.0,92,0.00,,,0.00,meteohub,2013-02-16 04:07:00,
2013-02-15 23:12:00,29.8,39.7,29.94,SSW,213,0.0,1.0,91,0.00,,,0.00,meteohub,2013-02-16 04:12:00,
2013-02-15 23:17:00,29.7,39.6,29.94,SSW,213,0.0,1.0,91,0.00,,,0.00,meteohub,2013-02-16 04:17:00,
2013-02-15 23:22:00,29.5,38.7,29.94,SSW,213,0.0,0.0,91,0.00,,,0.00,meteohub,2013-02-16 04:22:00,
2013-02-15 23:27:00,29.1,38.5,29.94,SSW,213,0.0,0.0,91,0.00,,,0.00,meteohub,2013-02-16 04:27:00,
2013-02-15 23:32:00,28.9,38.5,29.94,SSW,213,0.0,0.0,91,0.00,,,0.00,meteohub,2013-02-16 04:32:00,
2013-02-15 23:37:00,28.8,38.3,29.94,SSW,213,0.0,0.0,91,0.00,,,0.00,meteohub,2013-02-16 04:37:00,
2013-02-15 23:42:00,28.6,38.3,29.94,SSW,213,0.0,0.0,91,0.00,,,0.00,meteohub,2013-02-16 04:42:00,
2013-02-15 23:47:00,28.4,38.1,29.94,SSW,213,0.0,0.0,92,0.00,,,0.00,meteohub,2013-02-16 04:47:00,
2013-02-15 23:52:00,28.4,38.1,29.94,SSW,213,0.0,0.0,92,0.00,,,0.00,meteohub,2013-02-16 04:52:00,
2013-02-15 23:57:00,28.4,37.9,29.94,SSW,213,0.0,0.0,93,0.00,,,0.00,meteohub,2013-02-16 04:57:00,